Domov               UVHVVR             MKGP            O straneh              
ZDRAVSTVENO VARSTVO RASTLIN
  MREŽA AGROMET. POSTAJ
 ► PROGNOSTIČNA OBVESTILA
AGROMETEOROLOŠKI PODATKI -
ARSO
OBVLADOVANJE TVEGANJ ZARADI
NEUGODNIH VREMENSKIH RAZMER
  ► NARAVNE NESREČE
  ► SUŠA/MOČA
  ► NAMAKANJE
  ► ŽLED (gozdarstvo)
KARTOGRAFSKI PRIKAZI
SPLETNE POVEZAVE
PROJEKTI IN PUBLIKACIJE

AGROMETEOROLOŠKA MREŽA: VREMENSKE POSTAJE IN FENOLOŠKA OPAZOVANJA

Pregled podatkov za lokacijo Savci, meteorološka postaja 27393

Pregled senzorjev na lokaciji

ID Ime Zadnja
vrednost
Datum
zadnje
spremembe
Tip
senzorja
942 Omočenost lista (U) 0 U 14.12.2017 06:48 A730WET
943 Temperatura 2 m (°C) 6,15 °C 14.12.2017 06:48 Generic -40 - +60 °C
944 Relativna vlaga 2 m (% RH) 75,36 % RH 14.12.2017 06:48 Generic 0 - 100 %
1378 Padavine (mm) 0 mm 14.12.2017 06:48 Generic 0.2 mm

Pregled podatkov zadnjih 24 ur

Zap.
št.
Datum in čas Savci
Omočenost
lista
Padavine Relativna
vlaga
2
m
Temperatura
2
m
0 14.12.2017 07:00 0 0 75,36 6,15
1 14.12.2017 06:30 0 0 76,43 5,84
2 14.12.2017 06:00 0 0 77,97 5,52
3 14.12.2017 05:30 0 0 79,73 5,3
4 14.12.2017 05:00 0 0 80,76 4,44
5 14.12.2017 04:30 0 0 84,49 3,91
6 14.12.2017 04:00 0 0 85,18 3,32
7 14.12.2017 03:30 0 0 85,52 2,78
8 14.12.2017 03:00 0 0 91,28 2,1
9 14.12.2017 02:30 0 0 91,58 1,78
10 14.12.2017 02:00 0 0 94,02 1,47
11 14.12.2017 01:30 1 0 94,75 1,32
12 14.12.2017 01:00 2 0 96,14 1,15
13 14.12.2017 00:30 2 0 96,53 0,9
14 14.12.2017 00:00 2 0 95,73 1,03
15 13.12.2017 23:30 1 0 95,6 1,07
16 13.12.2017 23:00 1 0 94,24 1,51
17 13.12.2017 22:30 0 0 93,41 1,71
18 13.12.2017 22:00 0 0 93,06 1,56
19 13.12.2017 21:30 0 0 93,19 1,73
20 13.12.2017 21:00 0 0 91,87 1,56
21 13.12.2017 20:30 1 0 94,77 1,49
22 13.12.2017 20:00 0 0 92,53 1,95
23 13.12.2017 19:30 1 0 93,75 1,81
24 13.12.2017 19:00 2 0 95,82 1,61
25 13.12.2017 18:30 2 0 98,17 0,83
26 13.12.2017 18:00 2 0 98,02 1,32
27 13.12.2017 17:30 1 0 98,51 1,54
28 13.12.2017 17:00 1 0,2 96,19 1,93
29 13.12.2017 16:30 0 0 93,46 2,71
30 13.12.2017 16:00 0 0 95,12 3,08
31 13.12.2017 15:30 0,2 93,31 3,27
32 13.12.2017 15:00 0,2 92,45 3,27
33 13.12.2017 14:30 0,2 94,11 3,1
34 13.12.2017 14:00 0,2 95,8 3,15
35 13.12.2017 13:30 1 0,6 98,05 3,13
36 13.12.2017 13:00 3 0,8 99,93 3,1
37 13.12.2017 12:30 2 0,8 99,93 2,03
38 13.12.2017 12:00 2 0,8 99,93 1,56
39 13.12.2017 11:30 1 0,4 99,93 1,27
40 13.12.2017 11:00 0,2 99,93 0,68
41 13.12.2017 10:30 0,2 99,93 0,66
42 13.12.2017 10:00 0 0 99,93 0,63
43 13.12.2017 09:30 1 0 99,93 0,34
44 13.12.2017 09:00 1 0 99,93 0,22
45 13.12.2017 08:30 1 0 99,93 0,17
46 13.12.2017 08:00 1 0,2 99,93 0,12
47 13.12.2017 07:30 1 0 99,93 0
© 2011 Ministrstvo za kmetijstvo, gozdarstvo in prehrano. Vse pravice pridržane.